Precipitable_Water
0.69 0.66 0.64 0.64 0.64 0.63 0.61 0.60 0.59 0.58 0.57 0.56 0.55 0.55 0.54 0.53 0.51 0.50 0.50 0.49 0.48 0.47 0.47 0.47 0.46 0.45 0.44 0.45 0.44 0.43 0.44 0.34 0.27 0.22 0.21 0.19 0.22 0.23 0.25 0.27 0.27 0.34 0.36 0.33 0.33 0.28 0.24 0.25 0.24 0.29 0.22 0.23 0.23 0.20 0.29 0.31 0.34 0.29 0.20 0.17 0.13 0.13 0.16 0.21 0.19 0.19 0.20 0.19 0.20 0.21 0.21 0.20 0.22 0.42 0.52 0.67 0.60 0.58 0.64 0.69 0.79 0.91 0.87 0.93 0.97 1.07 1.11 1.15
0.68 0.69 0.66 0.64 0.64 0.63 0.63 0.61 0.60 0.60 0.59 0.57 0.56 0.55 0.55 0.53 0.52 0.51 0.51 0.50 0.49 0.48 0.47 0.46 0.45 0.45 0.45 0.43 0.43 0.44 0.38 0.29 0.21 0.21 0.19 0.23 0.23 0.24 0.24 0.26 0.27 0.35 0.37 0.29 0.26 0.24 0.22 0.21 0.24 0.25 0.20 0.18 0.31 0.21 0.29 0.27 0.34 0.22 0.19 0.17 0.12 0.15 0.22 0.25 0.23 0.22 0.21 0.20 0.21 0.22 0.22 0.20 0.19 0.27 0.39 0.39 0.44 0.50 0.47 0.61 0.71 0.72 0.80 0.93 0.99 1.04 1.05 1.07
0.68 0.70 0.68 0.67 0.65 0.64 0.62 0.62 0.61 0.60 0.60 0.58 0.57 0.56 0.54 0.54 0.52 0.52 0.50 0.50 0.49 0.48 0.47 0.46 0.45 0.45 0.43 0.44 0.43 0.42 0.34 0.21 0.20 0.15 0.15 0.21 0.21 0.22 0.23 0.25 0.29 0.37 0.30 0.26 0.29 0.26 0.21 0.19 0.23 0.23 0.19 0.18 0.26 0.22 0.26 0.28 0.29 0.26 0.20 0.14 0.14 0.22 0.26 0.26 0.25 0.24 0.24 0.23 0.22 0.22 0.22 0.21 0.21 0.22 0.29 0.34 0.39 0.48 0.37 0.41 0.56 0.62 0.63 0.76 0.86 0.94 0.98 1.01
0.67 0.67 0.66 0.66 0.64 0.63 0.63 0.62 0.61 0.61 0.60 0.59 0.59 0.57 0.56 0.55 0.53 0.52 0.51 0.50 0.49 0.48 0.47 0.46 0.45 0.44 0.43 0.43 0.44 0.40 0.26 0.19 0.11 0.12 0.16 0.22 0.23 0.24 0.26 0.26 0.29 0.36 0.33 0.31 0.32 0.28 0.27 0.23 0.22 0.21 0.18 0.18 0.25 0.28 0.22 0.27 0.24 0.25 0.22 0.16 0.18 0.26 0.26 0.26 0.27 0.26 0.26 0.25 0.23 0.22 0.23 0.21 0.21 0.22 0.31 0.37 0.37 0.38 0.39 0.47 0.48 0.49 0.58 0.69 0.82 0.86 0.91 0.89
0.64 0.63 0.65 0.65 0.65 0.63 0.62 0.61 0.61 0.60 0.59 0.59 0.59 0.58 0.57 0.55 0.55 0.53 0.52 0.50 0.50 0.48 0.48 0.46 0.44 0.44 0.44 0.43 0.42 0.36 0.22 0.09 0.09 0.15 0.34 0.39 0.39 0.37 0.31 0.28 0.31 0.34 0.33 0.32 0.32 0.30 0.26 0.21 0.21 0.20 0.17 0.15 0.24 0.26 0.25 0.27 0.27 0.24 0.20 0.22 0.24 0.27 0.24 0.27 0.27 0.27 0.25 0.25 0.23 0.22 0.21 0.21 0.23 0.26 0.30 0.34 0.23 0.26 0.32 0.43 0.57 0.61 0.66 0.70 0.72 0.77 0.83 0.82
0.63 0.62 0.63 0.63 0.61 0.60 0.62 0.61 0.61 0.60 0.59 0.58 0.58 0.57 0.56 0.55 0.54 0.54 0.52 0.51 0.49 0.49 0.47 0.47 0.45 0.43 0.44 0.43 0.37 0.29 0.14 0.06 0.26 0.32 0.49 0.48 0.43 0.42 0.41 0.33 0.34 0.34 0.37 0.34 0.29 0.26 0.23 0.21 0.19 0.17 0.16 0.16 0.19 0.21 0.24 0.27 0.28 0.17 0.20 0.21 0.24 0.28 0.26 0.28 0.27 0.26 0.25 0.23 0.22 0.21 0.22 0.22 0.21 0.21 0.28 0.23 0.21 0.22 0.29 0.49 0.59 0.65 0.73 0.76 0.76 0.73 0.73 0.79
0.63 0.63 0.63 0.63 0.61 0.60 0.60 0.61 0.61 0.60 0.60 0.59 0.57 0.57 0.56 0.55 0.54 0.53 0.53 0.51 0.50 0.49 0.48 0.46 0.45 0.45 0.42 0.41 0.40 0.24 0.11 0.09 0.17 0.37 0.56 0.46 0.39 0.42 0.47 0.41 0.36 0.33 0.35 0.31 0.29 0.22 0.21 0.19 0.18 0.16 0.17 0.17 0.20 0.21 0.25 0.25 0.28 0.22 0.18 0.20 0.21 0.26 0.26 0.28 0.26 0.25 0.25 0.23 0.22 0.23 0.24 0.22 0.21 0.19 0.22 0.21 0.22 0.23 0.29 0.52 0.66 0.75 0.83 0.83 0.71 0.72 0.71 0.74
0.61 0.61 0.60 0.59 0.60 0.61 0.61 0.60 0.59 0.59 0.59 0.58 0.57 0.56 0.55 0.54 0.54 0.53 0.52 0.50 0.50 0.49 0.49 0.47 0.46 0.44 0.44 0.34 0.24 0.15 0.15 0.11 0.13 0.16 0.25 0.41 0.41 0.39 0.46 0.44 0.30 0.32 0.30 0.28 0.27 0.22 0.20 0.18 0.16 0.20 0.18 0.15 0.19 0.18 0.23 0.25 0.25 0.21 0.19 0.21 0.24 0.27 0.27 0.27 0.26 0.24 0.24 0.23 0.24 0.24 0.22 0.21 0.21 0.21 0.21 0.21 0.26 0.35 0.44 0.60 0.67 0.78 0.80 0.80 0.76 0.71 0.75 0.77
0.61 0.60 0.59 0.58 0.57 0.58 0.57 0.60 0.59 0.59 0.58 0.58 0.57 0.56 0.56 0.54 0.53 0.53 0.50 0.51 0.49 0.49 0.47 0.48 0.44 0.46 0.46 0.33 0.18 0.13 0.11 0.14 0.15 0.15 0.25 0.33 0.39 0.41 0.41 0.30 0.33 0.29 0.28 0.30 0.31 0.25 0.20 0.18 0.19 0.20 0.16 0.17 0.23 0.20 0.23 0.22 0.20 0.22 0.21 0.22 0.25 0.27 0.27 0.26 0.24 0.23 0.23 0.23 0.23 0.21 0.20 0.21 0.22 0.22 0.20 0.21 0.35 0.44 0.60 0.65 0.70 0.76 0.77 0.74 0.71 0.71 0.72 0.73
0.60 0.59 0.58 0.56 0.57 0.57 0.57 0.58 0.58 0.58 0.59 0.57 0.56 0.57 0.56 0.55 0.53 0.52 0.52 0.50 0.50 0.48 0.48 0.47 0.46 0.45 0.38 0.27 0.24 0.12 0.12 0.21 0.29 0.39 0.31 0.35 0.38 0.37 0.36 0.29 0.30 0.30 0.28 0.29 0.29 0.26 0.20 0.19 0.18 0.24 0.27 0.23 0.26 0.22 0.25 0.22 0.20 0.23 0.22 0.24 0.25 0.26 0.25 0.24 0.22 0.22 0.22 0.22 0.22 0.19 0.19 0.20 0.22 0.20 0.16 0.27 0.43 0.49 0.51 0.59 0.69 0.75 0.71 0.69 0.68 0.69 0.73 0.75
0.59 0.58 0.58 0.56 0.57 0.57 0.57 0.59 0.59 0.58 0.58 0.57 0.55 0.56 0.55 0.54 0.53 0.52 0.53 0.50 0.50 0.49 0.49 0.47 0.49 0.42 0.29 0.32 0.16 0.11 0.15 0.23 0.37 0.40 0.42 0.40 0.39 0.34 0.34 0.33 0.30 0.27 0.27 0.28 0.26 0.25 0.22 0.24 0.27 0.27 0.27 0.27 0.25 0.24 0.26 0.25 0.26 0.26 0.25 0.25 0.24 0.24 0.24 0.23 0.23 0.22 0.22 0.20 0.21 0.21 0.19 0.20 0.20 0.18 0.16 0.24 0.46 0.50 0.39 0.51 0.60 0.70 0.69 0.66 0.66 0.68 0.72 0.78
0.58 0.58 0.57 0.56 0.56 0.58 0.59 0.59 0.57 0.57 0.56 0.56 0.55 0.55 0.54 0.53 0.52 0.52 0.52 0.52 0.50 0.51 0.48 0.48 0.49 0.48 0.38 0.27 0.20 0.14 0.33 0.36 0.37 0.41 0.40 0.42 0.42 0.40 0.42 0.39 0.34 0.30 0.29 0.26 0.26 0.26 0.25 0.26 0.33 0.26 0.20 0.32 0.24 0.24 0.23 0.28 0.26 0.24 0.24 0.21 0.23 0.24 0.22 0.22 0.21 0.21 0.21 0.20 0.22 0.22 0.20 0.17 0.17 0.16 0.19 0.29 0.47 0.50 0.40 0.45 0.53 0.60 0.68 0.67 0.67 0.70 0.73 0.76
0.57 0.56 0.55 0.56 0.57 0.57 0.56 0.57 0.57 0.56 0.56 0.55 0.54 0.53 0.52 0.52 0.52 0.51 0.50 0.50 0.51 0.49 0.49 0.48 0.50 0.40 0.33 0.17 0.18 0.20 0.22 0.35 0.35 0.36 0.38 0.38 0.47 0.49 0.47 0.47 0.41 0.38 0.35 0.29 0.26 0.27 0.26 0.32 0.35 0.31 0.38 0.31 0.29 0.22 0.24 0.25 0.23 0.23 0.23 0.22 0.21 0.21 0.19 0.21 0.22 0.21 0.21 0.21 0.23 0.22 0.14 0.14 0.16 0.18 0.20 0.35 0.48 0.47 0.42 0.43 0.50 0.57 0.63 0.66 0.66 0.66 0.72 0.79
0.59 0.57 0.57 0.57 0.57 0.57 0.56 0.57 0.57 0.56 0.55 0.54 0.53 0.52 0.50 0.49 0.49 0.49 0.49 0.47 0.50 0.48 0.48 0.49 0.53 0.44 0.30 0.17 0.17 0.21 0.22 0.22 0.21 0.22 0.28 0.31 0.35 0.44 0.50 0.49 0.48 0.42 0.38 0.31 0.31 0.31 0.27 0.31 0.41 0.44 0.45 0.35 0.27 0.32 0.25 0.22 0.23 0.19 0.21 0.21 0.19 0.18 0.17 0.21 0.21 0.21 0.20 0.22 0.22 0.20 0.13 0.13 0.16 0.18 0.19 0.33 0.43 0.37 0.34 0.41 0.47 0.54 0.58 0.62 0.63 0.65 0.68 0.76
0.59 0.58 0.57 0.54 0.57 0.59 0.57 0.57 0.57 0.56 0.55 0.53 0.52 0.51 0.49 0.47 0.47 0.46 0.47 0.46 0.44 0.48 0.52 0.59 0.54 0.38 0.22 0.18 0.24 0.23 0.23 0.26 0.19 0.18 0.29 0.29 0.32 0.38 0.43 0.47 0.44 0.40 0.36 0.32 0.31 0.33 0.30 0.29 0.38 0.38 0.37 0.40 0.36 0.28 0.23 0.21 0.20 0.21 0.18 0.16 0.19 0.17 0.18 0.20 0.21 0.21 0.18 0.20 0.21 0.19 0.14 0.14 0.16 0.17 0.19 0.31 0.41 0.37 0.30 0.37 0.44 0.49 0.53 0.57 0.60 0.61 0.65 0.73
0.59 0.58 0.55 0.54 0.57 0.59 0.57 0.56 0.54 0.55 0.54 0.53 0.51 0.50 0.49 0.46 0.44 0.43 0.43 0.42 0.44 0.52 0.57 0.46 0.43 0.36 0.24 0.15 0.16 0.30 0.26 0.18 0.15 0.21 0.32 0.32 0.31 0.32 0.40 0.44 0.46 0.41 0.34 0.31 0.34 0.35 0.31 0.31 0.32 0.37 0.37 0.33 0.29 0.25 0.22 0.20 0.19 0.20 0.18 0.17 0.16 0.17 0.17 0.18 0.20 0.21 0.20 0.19 0.20 0.18 0.15 0.15 0.16 0.18 0.19 0.24 0.38 0.39 0.32 0.36 0.42 0.47 0.50 0.55 0.55 0.57 0.63 0.71
0.58 0.58 0.56 0.55 0.56 0.57 0.57 0.54 0.53 0.55 0.55 0.52 0.51 0.49 0.46 0.43 0.42 0.41 0.42 0.42 0.43 0.52 0.50 0.31 0.42 0.42 0.14 0.19 0.30 0.17 0.15 0.17 0.24 0.27 0.35 0.37 0.36 0.34 0.38 0.40 0.37 0.34 0.35 0.32 0.33 0.33 0.32 0.32 0.38 0.37 0.34 0.28 0.27 0.26 0.20 0.17 0.17 0.17 0.19 0.17 0.19 0.16 0.17 0.16 0.19 0.21 0.21 0.19 0.17 0.18 0.16 0.16 0.17 0.18 0.20 0.24 0.38 0.42 0.36 0.38 0.43 0.47 0.50 0.53 0.55 0.58 0.61 0.66
0.59 0.59 0.57 0.59 0.57 0.57 0.57 0.56 0.56 0.55 0.53 0.52 0.50 0.46 0.40 0.45 0.45 0.42 0.37 0.45 0.52 0.49 0.51 0.53 0.45 0.33 0.17 0.21 0.15 0.17 0.23 0.23 0.22 0.21 0.35 0.43 0.43 0.40 0.39 0.34 0.32 0.32 0.31 0.26 0.27 0.24 0.31 0.34 0.37 0.28 0.27 0.26 0.25 0.23 0.19 0.15 0.17 0.17 0.17 0.17 0.17 0.17 0.17 0.16 0.16 0.19 0.20 0.20 0.18 0.17 0.16 0.17 0.18 0.19 0.20 0.21 0.25 0.35 0.38 0.41 0.50 0.52 0.54 0.56 0.57 0.58 0.60 0.64
0.60 0.61 0.59 0.60 0.60 0.59 0.57 0.55 0.54 0.53 0.53 0.52 0.50 0.46 0.46 0.55 0.52 0.46 0.33 0.39 0.32 0.24 0.17 0.22 0.24 0.11 0.10 0.20 0.20 0.18 0.22 0.25 0.28 0.24 0.28 0.40 0.42 0.44 0.41 0.37 0.31 0.29 0.25 0.21 0.19 0.22 0.32 0.32 0.33 0.27 0.21 0.22 0.22 0.22 0.21 0.21 0.20 0.19 0.18 0.16 0.16 0.15 0.15 0.16 0.18 0.20 0.20 0.19 0.17 0.17 0.16 0.17 0.21 0.26 0.27 0.29 0.36 0.32 0.35 0.41 0.46 0.56 0.59 0.58 0.57 0.59 0.61 0.65
0.61 0.61 0.60 0.60 0.59 0.56 0.56 0.55 0.52 0.53 0.53 0.47 0.44 0.36 0.37 0.26 0.37 0.32 0.37 0.36 0.23 0.17 0.16 0.19 0.22 0.18 0.19 0.25 0.27 0.29 0.29 0.33 0.25 0.23 0.29 0.40 0.39 0.38 0.37 0.33 0.31 0.30 0.25 0.19 0.20 0.24 0.33 0.25 0.23 0.22 0.22 0.22 0.23 0.24 0.24 0.23 0.22 0.19 0.18 0.17 0.16 0.16 0.16 0.18 0.19 0.20 0.22 0.19 0.16 0.17 0.19 0.20 0.25 0.30 0.34 0.34 0.37 0.35 0.34 0.36 0.36 0.48 0.60 0.62 0.60 0.62 0.66 0.67
0.61 0.60 0.60 0.59 0.58 0.57 0.54 0.54 0.54 0.53 0.52 0.49 0.43 0.30 0.17 0.19 0.22 0.21 0.35 0.36 0.31 0.25 0.18 0.18 0.21 0.20 0.16 0.22 0.30 0.27 0.21 0.26 0.28 0.25 0.27 0.39 0.35 0.34 0.31 0.30 0.27 0.23 0.25 0.25 0.22 0.32 0.31 0.25 0.24 0.25 0.25 0.24 0.24 0.25 0.25 0.22 0.22 0.19 0.17 0.17 0.16 0.16 0.15 0.18 0.19 0.21 0.23 0.18 0.17 0.20 0.21 0.26 0.30 0.34 0.37 0.40 0.35 0.34 0.38 0.39 0.43 0.46 0.52 0.60 0.62 0.65 0.69 0.73
0.62 0.61 0.60 0.60 0.59 0.55 0.52 0.53 0.53 0.53 0.53 0.49 0.40 0.28 0.26 0.25 0.40 0.43 0.36 0.21 0.27 0.30 0.31 0.25 0.25 0.21 0.22 0.22 0.27 0.30 0.28 0.23 0.22 0.25 0.29 0.34 0.31 0.27 0.30 0.27 0.24 0.21 0.27 0.28 0.28 0.25 0.22 0.22 0.26 0.27 0.28 0.27 0.25 0.25 0.24 0.21 0.20 0.20 0.18 0.17 0.16 0.17 0.19 0.20 0.21 0.24 0.23 0.21 0.20 0.22 0.22 0.29 0.32 0.37 0.41 0.40 0.41 0.47 0.51 0.51 0.50 0.50 0.53 0.55 0.59 0.64 0.69 0.72
0.64 0.60 0.59 0.58 0.58 0.55 0.53 0.53 0.52 0.52 0.46 0.37 0.30 0.27 0.26 0.37 0.43 0.54 0.48 0.34 0.24 0.27 0.25 0.25 0.23 0.21 0.19 0.23 0.26 0.31 0.21 0.20 0.19 0.24 0.27 0.32 0.29 0.28 0.29 0.25 0.24 0.24 0.26 0.27 0.22 0.21 0.20 0.24 0.28 0.30 0.28 0.25 0.23 0.23 0.23 0.22 0.21 0.20 0.18 0.16 0.15 0.18 0.17 0.16 0.21 0.25 0.23 0.22 0.22 0.23 0.25 0.32 0.37 0.40 0.40 0.45 0.48 0.52 0.57 0.57 0.56 0.58 0.56 0.57 0.59 0.63 0.64 0.67
0.64 0.61 0.58 0.58 0.59 0.56 0.54 0.53 0.51 0.44 0.40 0.36 0.30 0.26 0.36 0.49 0.53 0.54 0.37 0.23 0.20 0.25 0.27 0.25 0.23 0.21 0.19 0.17 0.25 0.25 0.21 0.22 0.24 0.22 0.32 0.31 0.28 0.32 0.28 0.25 0.25 0.25 0.23 0.26 0.25 0.22 0.21 0.26 0.31 0.29 0.26 0.23 0.21 0.22 0.21 0.20 0.18 0.20 0.19 0.17 0.16 0.17 0.18 0.18 0.21 0.24 0.24 0.24 0.27 0.25 0.25 0.28 0.35 0.32 0.34 0.45 0.55 0.54 0.53 0.53 0.55 0.60 0.62 0.65 0.68 0.69 0.72 0.73
0.64 0.61 0.59 0.59 0.60 0.57 0.54 0.51 0.39 0.37 0.43 0.37 0.33 0.45 0.52 0.55 0.56 0.57 0.38 0.29 0.26 0.22 0.34 0.30 0.32 0.27 0.23 0.32 0.34 0.26 0.28 0.29 0.27 0.30 0.31 0.31 0.30 0.30 0.27 0.30 0.28 0.23 0.25 0.27 0.27 0.24 0.24 0.28 0.27 0.24 0.23 0.24 0.22 0.21 0.21 0.20 0.18 0.18 0.19 0.18 0.18 0.18 0.18 0.20 0.22 0.22 0.20 0.19 0.22 0.20 0.15 0.22 0.36 0.38 0.39 0.46 0.50 0.44 0.52 0.47 0.49 0.54 0.58 0.61 0.60 0.63 0.72 0.78
0.63 0.61 0.60 0.60 0.60 0.58 0.55 0.37 0.38 0.43 0.35 0.28 0.37 0.53 0.56 0.56 0.60 0.61 0.38 0.23 0.15 0.21 0.28 0.18 0.31 0.20 0.32 0.24 0.28 0.26 0.33 0.23 0.29 0.31 0.32 0.33 0.38 0.29 0.29 0.26 0.27 0.22 0.26 0.27 0.26 0.26 0.25 0.28 0.24 0.22 0.22 0.22 0.22 0.20 0.21 0.21 0.18 0.17 0.17 0.20 0.19 0.19 0.19 0.19 0.21 0.21 0.17 0.15 0.19 0.22 0.14 0.17 0.33 0.33 0.39 0.45 0.46 0.44 0.50 0.49 0.52 0.55 0.57 0.58 0.60 0.63 0.67 0.72
0.62 0.62 0.61 0.60 0.60 0.60 0.42 0.30 0.47 0.42 0.27 0.28 0.49 0.57 0.56 0.55 0.66 0.57 0.27 0.19 0.13 0.19 0.17 0.25 0.24 0.24 0.24 0.22 0.26 0.29 0.17 0.18 0.31 0.34 0.30 0.34 0.32 0.37 0.25 0.24 0.26 0.29 0.30 0.31 0.26 0.23 0.26 0.26 0.25 0.25 0.22 0.20 0.20 0.18 0.20 0.19 0.17 0.15 0.20 0.19 0.19 0.19 0.18 0.19 0.21 0.21 0.19 0.21 0.21 0.21 0.19 0.16 0.20 0.32 0.44 0.49 0.45 0.43 0.45 0.50 0.54 0.58 0.59 0.60 0.61 0.65 0.66 0.71
0.63 0.63 0.61 0.60 0.60 0.58 0.47 0.47 0.41 0.31 0.31 0.43 0.55 0.57 0.57 0.57 0.66 0.53 0.27 0.12 0.09 0.24 0.17 0.24 0.24 0.38 0.25 0.28 0.28 0.23 0.25 0.31 0.21 0.28 0.31 0.31 0.31 0.31 0.29 0.25 0.22 0.22 0.27 0.27 0.17 0.24 0.24 0.22 0.23 0.22 0.22 0.20 0.18 0.18 0.19 0.19 0.16 0.15 0.19 0.20 0.19 0.19 0.19 0.21 0.22 0.21 0.21 0.19 0.15 0.17 0.21 0.16 0.21 0.35 0.49 0.49 0.39 0.40 0.43 0.49 0.54 0.59 0.62 0.62 0.64 0.66 0.70 0.74
0.63 0.63 0.62 0.59 0.59 0.59 0.57 0.47 0.40 0.30 0.41 0.54 0.57 0.58 0.55 0.63 0.55 0.34 0.23 0.11 0.26 0.21 0.35 0.21 0.36 0.32 0.27 0.32 0.26 0.26 0.29 0.31 0.21 0.27 0.31 0.32 0.30 0.30 0.24 0.29 0.28 0.26 0.28 0.24 0.17 0.21 0.24 0.22 0.20 0.21 0.21 0.18 0.19 0.19 0.18 0.17 0.13 0.15 0.20 0.21 0.22 0.22 0.23 0.24 0.22 0.21 0.20 0.17 0.15 0.16 0.19 0.15 0.22 0.35 0.39 0.47 0.42 0.40 0.45 0.52 0.57 0.60 0.60 0.63 0.64 0.67 0.71 0.75
0.62 0.61 0.61 0.58 0.56 0.54 0.53 0.52 0.39 0.39 0.48 0.57 0.61 0.59 0.59 0.55 0.39 0.20 0.16 0.09 0.36 0.18 0.22 0.27 0.22 0.23 0.26 0.22 0.23 0.25 0.26 0.30 0.30 0.29 0.31 0.27 0.28 0.31 0.31 0.34 0.31 0.29 0.28 0.28 0.23 0.24 0.27 0.26 0.31 0.26 0.24 0.22 0.20 0.20 0.19 0.16 0.14 0.17 0.19 0.19 0.20 0.23 0.24 0.24 0.23 0.21 0.19 0.15 0.16 0.19 0.21 0.19 0.16 0.29 0.39 0.36 0.39 0.48 0.52 0.55 0.59 0.61 0.63 0.65 0.68 0.69 0.71 0.73
0.61 0.61 0.62 0.60 0.48 0.52 0.52 0.37 0.39 0.44 0.53 0.64 0.61 0.57 0.55 0.42 0.24 0.16 0.11 0.14 0.32 0.31 0.25 0.24 0.20 0.28 0.25 0.19 0.18 0.24 0.27 0.30 0.29 0.31 0.27 0.28 0.26 0.28 0.29 0.27 0.33 0.30 0.29 0.25 0.22 0.25 0.27 0.27 0.27 0.28 0.30 0.29 0.28 0.25 0.25 0.22 0.18 0.16 0.16 0.18 0.21 0.22 0.23 0.21 0.20 0.21 0.15 0.14 0.18 0.22 0.21 0.21 0.14 0.28 0.41 0.50 0.59 0.59 0.57 0.52 0.53 0.56 0.59 0.63 0.66 0.68 0.71 0.74
0.59 0.60 0.60 0.57 0.56 0.58 0.43 0.37 0.44 0.51 0.57 0.61 0.57 0.48 0.37 0.21 0.24 0.15 0.13 0.41 0.23 0.30 0.25 0.21 0.24 0.25 0.25 0.24 0.19 0.20 0.24 0.27 0.30 0.29 0.26 0.24 0.23 0.22 0.24 0.21 0.23 0.22 0.21 0.20 0.18 0.24 0.22 0.24 0.28 0.28 0.30 0.27 0.25 0.23 0.22 0.22 0.19 0.17 0.18 0.20 0.17 0.16 0.17 0.14 0.16 0.14 0.14 0.14 0.20 0.25 0.23 0.19 0.23 0.37 0.48 0.52 0.56 0.61 0.61 0.58 0.57 0.58 0.60 0.63 0.65 0.66 0.68 0.72
0.58 0.59 0.61 0.58 0.55 0.50 0.46 0.48 0.49 0.50 0.57 0.58 0.52 0.45 0.27 0.20 0.12 0.16 0.20 0.29 0.27 0.38 0.29 0.32 0.23 0.25 0.25 0.24 0.21 0.22 0.27 0.24 0.29 0.30 0.30 0.28 0.23 0.21 0.24 0.23 0.25 0.24 0.17 0.20 0.18 0.17 0.19 0.25 0.26 0.26 0.26 0.29 0.26 0.20 0.18 0.16 0.19 0.19 0.17 0.17 0.15 0.13 0.13 0.12 0.14 0.16 0.16 0.18 0.23 0.22 0.28 0.21 0.40 0.45 0.56 0.54 0.61 0.65 0.63 0.63 0.63 0.61 0.61 0.62 0.64 0.67 0.68 0.70
0.58 0.61 0.56 0.55 0.52 0.49 0.46 0.47 0.47 0.52 0.55 0.54 0.49 0.33 0.27 0.18 0.15 0.22 0.21 0.28 0.33 0.45 0.40 0.32 0.28 0.27 0.26 0.21 0.22 0.25 0.22 0.28 0.30 0.30 0.32 0.27 0.23 0.19 0.21 0.23 0.24 0.23 0.21 0.19 0.15 0.16 0.14 0.16 0.21 0.24 0.21 0.28 0.26 0.23 0.21 0.18 0.19 0.19 0.21 0.18 0.15 0.14 0.12 0.10 0.13 0.12 0.13 0.15 0.19 0.28 0.19 0.22 0.27 0.34 0.58 0.63 0.67 0.67 0.68 0.67 0.66 0.66 0.65 0.65 0.67 0.67 0.67 0.67
0.61 0.60 0.57 0.52 0.51 0.47 0.47 0.44 0.47 0.56 0.54 0.51 0.38 0.28 0.19 0.17 0.21 0.22 0.24 0.29 0.38 0.43 0.37 0.39 0.32 0.26 0.25 0.24 0.25 0.26 0.26 0.24 0.29 0.30 0.29 0.27 0.21 0.20 0.20 0.21 0.24 0.22 0.21 0.16 0.17 0.18 0.17 0.18 0.23 0.27 0.27 0.28 0.25 0.26 0.26 0.23 0.20 0.21 0.22 0.22 0.17 0.15 0.17 0.12 0.15 0.14 0.14 0.15 0.16 0.22 0.23 0.37 0.36 0.61 0.65 0.69 0.68 0.65 0.66 0.65 0.66 0.63 0.65 0.67 0.65 0.64 0.64 0.66
0.60 0.54 0.57 0.48 0.44 0.41 0.45 0.43 0.49 0.57 0.52 0.44 0.31 0.23 0.19 0.21 0.19 0.32 0.34 0.44 0.42 0.40 0.38 0.35 0.30 0.25 0.24 0.24 0.26 0.26 0.29 0.25 0.26 0.27 0.28 0.27 0.25 0.20 0.24 0.24 0.22 0.21 0.19 0.17 0.20 0.17 0.19 0.18 0.26 0.27 0.29 0.27 0.27 0.27 0.25 0.25 0.15 0.21 0.21 0.17 0.18 0.23 0.20 0.17 0.18 0.18 0.19 0.17 0.16 0.29 0.30 0.41 0.53 0.59 0.64 0.66 0.63 0.61 0.64 0.66 0.65 0.64 0.66 0.66 0.64 0.65 0.65 0.67
0.53 0.54 0.45 0.42 0.37 0.41 0.43 0.42 0.48 0.53 0.50 0.40 0.28 0.22 0.25 0.25 0.32 0.36 0.46 0.42 0.44 0.44 0.38 0.29 0.27 0.25 0.23 0.22 0.23 0.25 0.26 0.27 0.26 0.24 0.22 0.27 0.25 0.26 0.24 0.25 0.26 0.24 0.23 0.21 0.20 0.25 0.18 0.20 0.27 0.26 0.24 0.27 0.30 0.29 0.28 0.26 0.27 0.23 0.18 0.21 0.26 0.28 0.24 0.18 0.14 0.15 0.14 0.12 0.20 0.26 0.25 0.30 0.32 0.27 0.60 0.60 0.55 0.56 0.59 0.60 0.62 0.64 0.65 0.63 0.63 0.65 0.66 0.67
0.50 0.45 0.40 0.36 0.42 0.45 0.44 0.43 0.46 0.47 0.46 0.37 0.28 0.27 0.37 0.26 0.39 0.44 0.50 0.49 0.45 0.43 0.34 0.31 0.29 0.30 0.26 0.24 0.22 0.24 0.27 0.23 0.24 0.23 0.21 0.23 0.23 0.29 0.27 0.25 0.27 0.26 0.27 0.27 0.24 0.23 0.26 0.20 0.24 0.28 0.27 0.28 0.30 0.29 0.27 0.29 0.30 0.26 0.24 0.30 0.21 0.18 0.16 0.19 0.17 0.13 0.12 0.12 0.20 0.26 0.30 0.31 0.32 0.34 0.46 0.49 0.48 0.49 0.53 0.57 0.57 0.58 0.61 0.61 0.63 0.64 0.66 0.69
0.48 0.42 0.31 0.43 0.48 0.45 0.43 0.43 0.43 0.44 0.41 0.32 0.31 0.27 0.28 0.30 0.41 0.45 0.49 0.49 0.47 0.41 0.34 0.32 0.28 0.29 0.29 0.25 0.25 0.26 0.26 0.21 0.24 0.22 0.20 0.22 0.21 0.29 0.29 0.29 0.26 0.29 0.30 0.30 0.26 0.25 0.27 0.21 0.22 0.30 0.27 0.29 0.30 0.27 0.21 0.24 0.28 0.30 0.30 0.27 0.29 0.23 0.19 0.16 0.16 0.18 0.16 0.14 0.17 0.22 0.28 0.24 0.37 0.42 0.47 0.48 0.52 0.50 0.52 0.53 0.53 0.56 0.57 0.60 0.61 0.63 0.64 0.67
0.41 0.36 0.31 0.45 0.49 0.49 0.45 0.39 0.41 0.44 0.32 0.25 0.29 0.27 0.35 0.29 0.37 0.45 0.48 0.47 0.41 0.38 0.35 0.31 0.30 0.28 0.29 0.28 0.27 0.24 0.26 0.25 0.23 0.23 0.22 0.25 0.25 0.34 0.30 0.33 0.29 0.29 0.31 0.31 0.29 0.30 0.24 0.29 0.21 0.27 0.32 0.28 0.23 0.29 0.24 0.24 0.23 0.24 0.24 0.24 0.24 0.24 0.27 0.23 0.21 0.17 0.15 0.16 0.16 0.17 0.19 0.26 0.39 0.53 0.50 0.50 0.52 0.53 0.53 0.51 0.53 0.54 0.58 0.61 0.62 0.63 0.65 0.66
0.50 0.41 0.35 0.55 0.55 0.57 0.42 0.40 0.36 0.30 0.27 0.30 0.30 0.27 0.25 0.28 0.39 0.44 0.46 0.47 0.43 0.45 0.38 0.33 0.29 0.28 0.29 0.27 0.26 0.27 0.26 0.26 0.26 0.25 0.27 0.26 0.27 0.22 0.34 0.33 0.35 0.30 0.32 0.31 0.29 0.29 0.24 0.25 0.23 0.27 0.26 0.26 0.32 0.37 0.36 0.32 0.28 0.26 0.24 0.22 0.23 0.21 0.20 0.17 0.16 0.23 0.19 0.16 0.16 0.15 0.14 0.25 0.43 0.57 0.54 0.52 0.55 0.55 0.55 0.54 0.54 0.56 0.58 0.60 0.62 0.64 0.65 0.65
0.44 0.32 0.37 0.61 0.62 0.49 0.37 0.27 0.30 0.37 0.30 0.25 0.22 0.24 0.25 0.37 0.42 0.42 0.44 0.44 0.40 0.34 0.37 0.33 0.33 0.33 0.32 0.29 0.29 0.29 0.29 0.29 0.30 0.29 0.29 0.26 0.31 0.32 0.34 0.43 0.39 0.35 0.28 0.26 0.26 0.31 0.30 0.32 0.29 0.26 0.29 0.30 0.37 0.42 0.43 0.41 0.37 0.33 0.30 0.27 0.29 0.24 0.22 0.19 0.15 0.18 0.21 0.20 0.24 0.22 0.18 0.22 0.46 0.53 0.54 0.55 0.56 0.56 0.57 0.56 0.56 0.58 0.59 0.60 0.62 0.63 0.66 0.67
0.47 0.40 0.59 0.58 0.54 0.50 0.40 0.30 0.34 0.31 0.27 0.27 0.31 0.28 0.32 0.39 0.42 0.43 0.38 0.36 0.32 0.34 0.32 0.33 0.33 0.33 0.33 0.32 0.32 0.32 0.32 0.31 0.34 0.29 0.33 0.32 0.34 0.40 0.42 0.40 0.41 0.34 0.32 0.29 0.32 0.33 0.37 0.30 0.28 0.32 0.36 0.39 0.41 0.44 0.43 0.44 0.38 0.31 0.34 0.36 0.31 0.24 0.23 0.21 0.20 0.22 0.20 0.22 0.19 0.20 0.16 0.23 0.45 0.54 0.54 0.56 0.57 0.57 0.59 0.58 0.58 0.59 0.60 0.60 0.60 0.62 0.63 0.65
0.47 0.44 0.41 0.51 0.61 0.57 0.34 0.22 0.23 0.26 0.26 0.25 0.25 0.26 0.38 0.41 0.40 0.36 0.34 0.33 0.33 0.33 0.34 0.36 0.36 0.38 0.33 0.36 0.33 0.32 0.34 0.29 0.39 0.37 0.33 0.36 0.34 0.50 0.46 0.41 0.40 0.33 0.29 0.29 0.26 0.36 0.26 0.32 0.30 0.27 0.27 0.30 0.32 0.35 0.36 0.40 0.38 0.34 0.32 0.35 0.35 0.33 0.29 0.28 0.26 0.28 0.20 0.23 0.22 0.17 0.13 0.21 0.40 0.52 0.54 0.54 0.55 0.55 0.56 0.60 0.61 0.59 0.61 0.61 0.62 0.62 0.62 0.64
0.52 0.46 0.39 0.45 0.58 0.52 0.31 0.33 0.24 0.21 0.22 0.23 0.25 0.34 0.39 0.39 0.40 0.37 0.33 0.33 0.38 0.36 0.38 0.36 0.38 0.39 0.37 0.38 0.34 0.36 0.36 0.34 0.34 0.43 0.40 0.37 0.40 0.52 0.50 0.48 0.45 0.38 0.38 0.38 0.35 0.39 0.29 0.33 0.29 0.23 0.21 0.20 0.20 0.21 0.23 0.27 0.31 0.36 0.37 0.36 0.36 0.31 0.28 0.25 0.20 0.22 0.18 0.25 0.25 0.20 0.20 0.32 0.43 0.49 0.50 0.52 0.54 0.55 0.58 0.61 0.62 0.63 0.62 0.61 0.61 0.62 0.62 0.62
0.44 0.27 0.35 0.40 0.46 0.45 0.44 0.49 0.39 0.32 0.31 0.29 0.33 0.37 0.39 0.34 0.37 0.40 0.39 0.36 0.37 0.37 0.39 0.40 0.43 0.43 0.38 0.35 0.33 0.35 0.37 0.41 0.34 0.36 0.38 0.36 0.42 0.48 0.51 0.51 0.48 0.43 0.41 0.41 0.39 0.37 0.34 0.38 0.33 0.29 0.26 0.25 0.27 0.31 0.39 0.40 0.36 0.29 0.33 0.34 0.34 0.35 0.34 0.29 0.26 0.22 0.18 0.24 0.23 0.26 0.27 0.31 0.36 0.42 0.45 0.50 0.53 0.53 0.55 0.58 0.59 0.60 0.61 0.62 0.62 0.62 0.61 0.61
0.55 0.34 0.32 0.30 0.40 0.40 0.41 0.45 0.39 0.41 0.33 0.38 0.33 0.38 0.35 0.37 0.37 0.37 0.37 0.30 0.36 0.35 0.36 0.38 0.40 0.39 0.37 0.36 0.35 0.35 0.38 0.37 0.40 0.39 0.37 0.37 0.43 0.46 0.51 0.51 0.50 0.50 0.46 0.41 0.44 0.36 0.33 0.31 0.35 0.34 0.33 0.35 0.38 0.37 0.41 0.40 0.33 0.35 0.33 0.33 0.36 0.34 0.34 0.29 0.24 0.21 0.27 0.24 0.21 0.31 0.34 0.30 0.34 0.41 0.46 0.49 0.52 0.55 0.57 0.58 0.58 0.60 0.61 0.60 0.60 0.61 0.62 0.63
0.44 0.43 0.45 0.43 0.33 0.28 0.30 0.33 0.41 0.40 0.46 0.43 0.40 0.45 0.38 0.36 0.34 0.29 0.33 0.36 0.36 0.36 0.31 0.35 0.40 0.42 0.40 0.38 0.36 0.32 0.37 0.37 0.39 0.37 0.43 0.42 0.40 0.44 0.43 0.48 0.45 0.49 0.47 0.43 0.45 0.35 0.30 0.28 0.38 0.34 0.34 0.39 0.41 0.40 0.41 0.38 0.37 0.38 0.37 0.37 0.35 0.36 0.35 0.30 0.31 0.33 0.32 0.24 0.21 0.32 0.36 0.32 0.37 0.43 0.48 0.51 0.54 0.56 0.57 0.56 0.58 0.60 0.61 0.60 0.59 0.59 0.60 0.62
0.56 0.53 0.51 0.54 0.38 0.37 0.36 0.40 0.43 0.41 0.43 0.44 0.43 0.43 0.37 0.36 0.31 0.32 0.31 0.31 0.32 0.31 0.34 0.29 0.33 0.39 0.41 0.43 0.37 0.34 0.37 0.32 0.35 0.41 0.40 0.40 0.40 0.40 0.39 0.43 0.48 0.50 0.46 0.43 0.42 0.42 0.34 0.32 0.37 0.37 0.35 0.37 0.40 0.40 0.41 0.37 0.37 0.37 0.37 0.39 0.41 0.39 0.37 0.37 0.36 0.39 0.36 0.33 0.35 0.36 0.37 0.37 0.42 0.46 0.50 0.54 0.59 0.60 0.60 0.60 0.60 0.58 0.56 0.57 0.59 0.59 0.58 0.60
0.51 0.47 0.43 0.52 0.49 0.41 0.42 0.42 0.44 0.41 0.39 0.46 0.40 0.39 0.40 0.34 0.31 0.33 0.34 0.31 0.27 0.29 0.34 0.30 0.33 0.36 0.39 0.39 0.39 0.36 0.37 0.38 0.36 0.33 0.40 0.39 0.39 0.41 0.39 0.41 0.41 0.47 0.47 0.41 0.41 0.44 0.33 0.34 0.38 0.37 0.32 0.34 0.38 0.41 0.41 0.39 0.37 0.34 0.38 0.40 0.42 0.43 0.42 0.42 0.41 0.41 0.41 0.38 0.39 0.38 0.37 0.37 0.47 0.53 0.54 0.58 0.60 0.62 0.61 0.58 0.57 0.57 0.57 0.59 0.60 0.58 0.58 0.57
0.64 0.65 0.59 0.45 0.37 0.39 0.42 0.43 0.42 0.43 0.41 0.44 0.40 0.38 0.36 0.34 0.32 0.35 0.33 0.37 0.32 0.29 0.31 0.30 0.34 0.35 0.37 0.36 0.36 0.37 0.42 0.41 0.41 0.40 0.42 0.40 0.35 0.41 0.37 0.39 0.45 0.40 0.42 0.42 0.42 0.43 0.37 0.37 0.42 0.36 0.28 0.31 0.38 0.38 0.39 0.40 0.39 0.36 0.37 0.39 0.40 0.40 0.36 0.40 0.38 0.43 0.39 0.35 0.38 0.38 0.35 0.36 0.46 0.54 0.56 0.58 0.59 0.58 0.57 0.57 0.56 0.57 0.57 0.60 0.60 0.59 0.59 0.59
0.70 0.69 0.67 0.56 0.37 0.44 0.41 0.45 0.46 0.44 0.35 0.41 0.40 0.37 0.35 0.34 0.36 0.36 0.32 0.38 0.38 0.37 0.36 0.34 0.33 0.32 0.33 0.32 0.33 0.37 0.41 0.42 0.41 0.42 0.42 0.43 0.43 0.44 0.45 0.44 0.44 0.41 0.39 0.41 0.46 0.41 0.40 0.37 0.35 0.34 0.28 0.31 0.39 0.40 0.38 0.37 0.35 0.30 0.32 0.37 0.40 0.41 0.43 0.44 0.45 0.47 0.45 0.45 0.38 0.34 0.36 0.47 0.51 0.55 0.53 0.55 0.57 0.57 0.57 0.57 0.56 0.57 0.58 0.59 0.59 0.60 0.60 0.60
Wind_Speed
28 28 28 28 28 28 28 28 28 28 28 28 28 27 27 27 27 27 26 26 25 25 25 24 24 24 23 24 24 24 24 24 24 23 24 24 25 26 25 24 22 22 22 20 20 19 19 19 19 19 18 18 18 18 18 17 16 15 14 14 14 15 14 13 13 12 11 11 11 10 8 9 10 10 9 8 6 6 6 7 8 9 9 10 9 8 8 8
29 28 29 29 29 29 29 29 29 29 29 29 28 28 28 28 28 28 27 27 26 26 25 25 24 24 24 23 23 23 24 24 24 24 25 25 26 27 26 25 23 23 23 21 21 20 19 20 20 19 19 19 18 18 18 18 17 16 14 14 15 15 14 14 13 12 11 11 11 11 10 9 11 11 10 9 8 8 6 7 8 8 9 9 9 8 8 8
29 29 29 29 29 29 29 29 29 29 29 29 29 29 29 28 28 28 28 28 27 27 26 25 25 24 24 24 23 23 23 23 23 24 24 25 27 27 26 26 24 24 24 22 22 21 21 21 21 20 19 18 18 18 18 18 17 17 15 15 16 15 15 14 14 13 13 12 12 12 10 8 11 11 10 9 8 8 8 8 8 9 10 10 10 9 9 9
29 29 29 30 30 30 30 30 30 30 30 30 30 29 29 29 29 29 29 28 28 28 27 26 25 25 24 24 24 23 22 22 22 22 22 22 25 26 26 26 25 25 24 23 22 21 21 21 20 20 19 19 19 18 18 19 17 17 16 16 17 15 15 15 14 14 14 13 12 12 10 9 10 9 9 9 8 10 11 11 11 11 11 11 11 11 11 10
29 29 29 29 30 30 30 30 30 30 30 30 30 30 30 30 29 29 29 29 29 28 28 27 26 25 25 25 24 22 21 20 21 21 20 20 22 24 25 26 25 25 24 23 22 21 21 21 20 20 19 19 19 18 19 19 18 17 17 18 18 16 15 15 15 14 13 13 13 11 10 10 10 9 10 9 9 11 12 13 13 12 12 11 12 11 11 11
28 28 29 29 29 29 29 29 30 30 30 30 30 30 30 30 30 30 29 29 29 29 28 28 27 26 26 25 24 23 21 20 19 18 18 19 20 21 24 25 26 25 24 23 22 21 22 21 21 20 19 19 19 19 19 19 18 17 17 18 19 18 17 15 15 14 13 12 13 12 11 11 10 10 11 11 11 12 12 13 13 12 12 11 11 11 12 12
27 28 28 29 29 29 29 29 29 29 29 29 30 30 30 30 30 30 30 30 29 29 29 28 28 27 26 25 24 23 23 24 22 19 19 19 19 20 22 24 25 25 24 23 22 22 22 21 22 21 19 19 20 20 19 19 18 18 18 18 19 19 18 17 16 16 15 14 15 14 13 13 11 11 11 11 12 12 12 12 12 12 12 11 11 11 12 11
28 28 28 29 29 29 29 29 29 29 29 29 30 30 30 30 30 31 30 30 30 29 29 29 28 27 26 25 25 24 24 25 25 23 22 21 20 19 20 23 25 25 25 24 24 23 23 22 22 21 19 20 20 20 20 19 18 19 19 18 18 19 19 18 18 17 16 16 16 14 14 15 13 11 11 11 12 12 12 12 12 12 12 12 12 12 12 11
29 29 29 29 30 30 30 29 29 29 29 29 30 30 30 30 30 30 30 30 30 30 29 29 28 27 26 26 25 25 25 25 25 25 24 23 21 20 20 23 26 26 24 25 24 23 23 23 23 21 20 21 20 19 20 20 19 20 20 20 19 19 19 18 18 18 17 16 15 13 15 15 13 11 11 12 12 12 12 13 13 13 13 13 13 12 11 10
30 30 30 30 30 30 30 30 29 29 29 30 30 30 30 29 29 29 30 30 30 30 29 29 28 28 27 27 26 25 25 24 24 24 24 23 22 21 21 23 25 25 24 25 24 24 23 23 23 21 19 20 20 20 20 20 19 19 20 21 21 20 19 18 18 18 17 16 15 14 15 13 11 11 12 13 12 11 11 12 13 14 14 14 13 12 10 10
31 31 31 31 30 30 30 30 30 30 30 30 30 30 30 29 29 29 29 30 30 30 29 29 29 28 28 27 27 25 24 23 23 22 22 22 23 22 22 23 24 25 25 25 25 26 24 23 22 21 20 20 21 20 21 21 20 19 19 20 20 19 18 18 18 18 16 16 16 15 14 12 10 12 13 13 12 11 10 12 13 14 14 14 13 12 10 10
32 32 32 31 31 31 31 30 30 30 30 30 30 30 30 29 29 29 29 30 30 30 30 29 29 29 28 28 29 27 25 24 23 22 21 22 23 23 22 23 24 24 25 25 26 26 25 23 22 21 21 21 20 20 20 21 20 19 19 19 19 17 17 18 17 17 16 15 15 14 12 12 12 13 13 13 12 11 11 12 13 14 14 13 13 12 11 11
32 32 32 32 31 31 31 31 30 30 30 30 30 30 30 30 29 30 29 30 30 30 30 30 29 29 29 29 29 28 28 27 26 24 24 23 23 23 23 23 24 24 24 24 25 26 26 24 23 22 21 20 20 20 19 19 20 19 18 18 18 16 17 17 16 16 15 14 13 12 12 13 14 14 14 13 13 12 11 12 13 13 14 13 13 12 11 11
32 32 32 31 31 31 31 30 30 30 30 30 30 30 30 30 30 30 30 30 30 29 29 29 29 29 29 29 29 29 30 29 28 27 26 24 24 24 23 23 24 24 24 24 24 26 27 25 24 23 22 21 21 20 19 18 18 19 18 17 17 17 17 17 15 15 14 14 13 12 12 13 13 14 14 13 13 12 12 12 13 13 14 13 13 13 12 11
32 32 32 32 31 31 30 30 30 30 30 31 30 30 30 31 31 30 30 30 30 29 29 29 29 28 28 29 28 28 29 28 28 28 27 25 25 24 24 24 24 24 24 25 24 25 27 27 25 23 23 22 21 20 19 18 17 17 18 17 17 17 17 16 15 15 15 14 13 12 13 13 13 14 13 12 13 12 12 12 12 13 14 14 13 13 13 11
32 32 32 31 31 30 30 30 30 30 30 30 30 30 31 31 31 31 31 30 29 29 28 27 28 27 26 26 26 26 27 27 27 27 27 27 26 25 24 24 23 24 24 25 25 25 26 27 26 24 23 22 21 20 19 18 17 17 18 17 17 17 17 15 15 15 15 15 14 13 14 13 11 11 10 10 12 11 11 12 12 14 14 14 14 13 13 12
32 31 31 30 30 30 30 30 29 29 29 29 30 30 31 31 31 31 30 29 28 28 27 26 26 26 26 25 24 25 26 26 25 26 27 27 26 25 24 23 23 23 23 24 25 26 26 27 25 24 23 22 21 20 20 20 19 17 17 17 17 16 16 15 15 14 14 14 14 14 15 15 12 9 8 9 10 11 11 11 12 14 14 14 14 13 13 12
31 30 30 29 29 29 29 29 28 28 29 29 29 30 30 29 29 29 28 28 27 26 26 26 25 25 25 25 24 24 24 23 24 26 26 27 27 26 24 24 23 23 22 23 25 26 27 26 24 23 23 23 22 21 22 22 21 18 18 18 16 15 15 15 15 15 13 13 15 14 15 15 12 11 10 10 10 12 12 11 11 13 14 14 14 14 14 13
29 29 29 28 28 28 28 28 28 28 28 28 28 28 28 27 26 27 27 28 27 26 25 26 26 24 22 23 23 24 24 23 24 25 27 27 27 26 25 24 23 23 23 23 24 26 26 24 23 24 24 24 23 23 23 22 21 19 18 18 16 15 16 16 16 16 15 14 15 15 15 13 11 12 11 10 9 9 10 10 10 12 14 14 14 14 14 14
28 28 27 27 27 27 27 27 27 27 27 27 26 26 26 25 26 26 27 29 30 28 26 26 28 27 23 21 20 21 23 23 23 25 27 27 27 26 25 24 23 23 23 23 25 26 26 25 25 25 25 24 24 23 22 21 20 19 17 16 16 16 17 17 16 16 15 14 14 14 13 12 11 12 11 10 8 6 8 8 8 10 12 13 13 14 14 14
27 27 26 26 26 26 26 26 26 26 25 25 25 24 24 25 26 26 27 29 30 31 30 28 29 29 27 25 22 20 21 23 23 24 27 27 27 26 25 25 24 23 23 24 24 25 25 25 26 25 25 24 24 23 21 20 20 18 17 16 16 17 17 17 16 15 14 13 13 12 12 12 12 12 11 9 7 6 8 7 6 7 9 11 12 13 13 13
25 25 25 25 25 25 25 25 25 25 24 24 24 24 24 25 24 24 25 26 28 30 31 30 29 29 29 28 25 23 22 23 24 24 26 27 27 26 25 24 24 24 23 23 24 25 25 25 26 25 24 22 20 21 20 20 20 19 18 17 16 17 17 17 16 14 12 13 13 12 12 13 14 13 10 7 7 7 6 5 5 6 7 8 10 11 12 13
24 24 24 24 24 23 23 23 23 23 23 23 23 24 24 23 23 23 24 24 26 28 29 29 29 29 29 28 27 25 24 24 24 25 27 27 27 26 24 24 24 24 24 24 25 25 25 25 25 24 23 21 20 20 20 20 20 20 19 19 17 17 16 16 15 13 12 12 13 14 14 13 13 13 10 7 7 6 5 4 5 5 6 7 8 9 11 13
23 23 23 23 22 22 22 22 22 21 22 22 23 24 23 22 21 22 22 23 24 25 27 28 29 29 29 27 26 25 25 25 25 26 27 28 26 25 24 24 24 23 24 25 25 25 25 24 24 23 22 22 21 21 22 21 21 21 21 20 18 17 17 17 15 13 12 12 13 15 13 12 12 11 10 9 8 5 5 4 4 5 5 6 7 7 9 10
22 22 22 22 22 21 21 20 20 20 20 21 22 22 22 21 20 21 21 21 22 23 24 26 27 27 28 27 26 25 24 25 27 26 27 29 27 24 23 23 23 24 25 25 24 24 24 22 21 22 22 23 22 22 23 23 22 21 22 21 20 18 18 17 14 12 12 12 15 15 13 13 13 11 10 10 7 5 5 4 4 5 5 6 6 7 7 8
21 22 22 21 21 20 19 19 18 18 19 20 21 20 20 20 19 20 19 18 21 23 23 24 25 25 27 27 27 24 22 24 26 27 27 28 27 24 22 22 22 23 25 24 23 23 23 22 21 21 23 23 23 23 23 23 21 21 22 22 21 18 17 17 15 13 13 14 16 16 15 14 13 11 10 10 7 5 5 4 4 5 5 5 5 6 6 7
20 21 21 21 21 20 19 19 18 18 19 20 20 19 19 19 18 19 18 16 19 22 22 23 23 24 26 26 26 24 21 22 24 26 27 27 26 24 23 23 22 23 24 24 23 23 23 23 22 21 21 23 24 23 23 22 21 21 22 22 21 19 18 18 16 15 15 15 15 15 15 14 13 12 11 11 8 6 5 5 5 5 5 5 5 5 6 6
19 19 20 20 20 20 20 20 19 19 19 19 19 19 18 18 18 18 16 15 16 19 21 22 23 23 24 25 27 25 20 20 22 24 26 27 26 24 23 24 23 23 24 23 23 22 22 24 24 22 21 22 24 23 23 22 21 22 21 20 20 19 19 18 16 16 15 15 16 15 14 13 13 13 12 11 9 7 6 6 6 5 5 5 5 5 6 6
18 18 19 19 20 20 20 19 19 19 19 18 17 17 17 17 18 16 15 15 15 17 19 21 23 23 23 25 26 25 20 19 21 23 25 26 26 24 23 23 22 22 23 23 23 21 20 23 24 22 21 22 22 22 22 23 21 21 20 19 18 17 17 16 16 16 14 14 17 17 15 13 13 13 13 12 10 9 8 7 6 6 5 5 6 6 7 7
17 17 17 18 18 18 18 18 19 19 18 18 16 16 16 17 17 15 15 15 14 15 17 20 22 22 23 24 24 24 20 18 20 22 23 24 24 23 22 22 21 21 21 20 22 21 19 20 22 22 21 21 20 20 21 22 20 20 20 18 17 16 16 16 16 16 14 14 17 17 16 14 13 13 13 12 11 9 9 8 7 6 5 6 7 8 9 9
16 16 15 16 16 16 16 16 17 18 18 17 15 15 17 17 16 15 16 15 13 13 16 19 21 21 23 24 23 24 22 19 20 23 23 23 23 23 23 22 22 21 21 20 21 21 19 19 21 21 20 19 18 18 19 19 19 19 20 19 18 16 16 15 15 16 15 16 16 16 15 13 13 13 13 12 10 9 9 8 7 6 6 7 7 8 9 9
14 14 13 14 15 15 16 16 16 17 17 16 15 16 18 16 16 17 15 13 12 13 15 18 20 21 23 23 23 24 23 20 21 23 23 23 23 24 24 24 24 22 21 22 22 21 21 21 20 19 20 20 18 17 17 18 19 20 20 21 19 16 15 16 16 16 16 16 15 15 14 13 12 13 12 12 11 9 9 8 7 7 6 7 8 9 9 9
13 13 13 13 14 15 17 17 17 18 16 15 16 17 17 15 15 18 17 12 11 13 13 16 19 21 21 21 22 24 23 21 22 22 23 23 23 24 23 23 24 22 21 22 21 20 20 20 20 19 20 21 20 18 19 20 21 22 21 22 20 17 16 17 16 16 16 16 15 14 13 13 13 13 12 12 11 9 8 7 7 7 7 7 8 9 9 9
13 13 13 13 14 15 17 18 19 19 17 17 18 17 17 15 14 17 17 13 11 12 12 13 16 19 21 21 21 24 22 20 21 21 22 23 23 24 23 22 23 21 19 20 21 20 20 19 21 21 20 20 21 20 20 20 20 21 20 20 20 18 17 17 17 16 16 15 14 13 13 14 15 14 13 12 11 9 8 7 7 7 8 8 9 9 9 10
12 13 13 13 14 15 17 19 20 20 18 18 19 18 18 17 14 14 15 13 12 12 11 12 15 18 20 20 20 23 22 19 20 21 21 23 24 24 23 22 22 21 19 20 20 20 19 19 20 20 19 20 20 18 18 19 19 20 19 18 19 20 17 15 16 16 16 14 13 14 14 15 15 14 14 13 11 10 8 8 8 8 9 9 9 9 10 10
11 11 12 13 13 14 17 20 21 20 19 19 19 19 18 16 15 14 12 11 12 13 11 11 15 18 20 19 21 24 22 19 19 20 20 21 22 22 22 21 21 21 20 20 20 19 18 18 18 18 19 19 18 18 17 18 19 19 19 19 19 18 16 15 15 14 14 14 14 15 15 15 15 14 14 13 11 10 9 8 8 9 9 8 9 10 11 11
10 10 11 12 13 14 17 20 21 21 20 20 19 18 17 16 15 13 11 10 13 14 11 11 15 18 20 20 22 25 23 20 19 19 19 20 20 21 21 20 20 21 21 20 18 19 19 17 17 18 19 18 16 16 16 16 18 19 19 20 18 15 15 15 14 13 13 14 15 15 16 16 15 15 14 13 11 10 9 8 8 9 8 9 10 11 12 12
10 10 10 11 13 16 18 21 21 21 20 19 18 17 17 17 15 12 11 11 12 12 13 14 15 17 20 21 21 24 25 22 19 18 19 19 19 20 21 20 20 21 22 20 17 17 18 17 16 17 18 17 15 15 16 15 16 17 18 18 16 15 16 15 15 15 14 14 15 15 16 17 16 15 15 14 12 11 10 9 8 8 9 9 11 12 12 12
9 9 9 11 15 18 20 22 21 20 18 18 18 17 16 16 14 10 10 10 10 11 13 15 16 17 19 21 21 23 24 22 20 19 18 19 18 19 20 20 20 21 22 21 18 17 17 17 16 17 17 17 16 16 18 18 15 15 15 16 16 15 16 16 16 15 15 15 15 14 15 17 17 15 15 14 13 12 11 10 9 9 10 10 11 12 12 12
10 10 11 13 17 20 22 22 20 18 17 18 18 17 16 14 11 10 11 9 8 11 13 14 15 17 18 20 20 22 22 21 20 19 18 18 17 17 19 19 19 20 21 21 19 17 16 16 16 16 16 17 17 17 20 20 18 16 16 16 16 14 15 16 15 14 14 14 15 14 15 16 16 15 14 13 12 12 11 10 9 10 10 10 11 11 11 12
11 12 13 15 19 21 22 20 17 17 17 17 17 16 15 12 9 11 11 8 7 12 14 13 14 16 17 19 20 21 21 19 18 18 17 18 18 17 18 19 19 20 20 20 20 18 17 16 15 15 15 16 17 17 18 19 19 18 17 17 16 15 15 14 14 15 14 14 15 15 15 15 15 15 14 13 12 12 11 10 9 10 10 10 10 10 11 12
12 13 14 16 20 21 19 17 16 16 16 17 16 16 14 11 10 10 9 7 8 12 14 13 13 16 17 18 20 20 20 18 17 18 17 18 18 17 17 18 19 20 20 20 20 19 18 16 15 15 16 17 17 17 17 17 17 16 15 16 16 16 15 15 15 15 14 13 14 13 13 14 15 14 14 13 11 11 10 9 8 9 9 9 9 10 10 11
13 13 14 18 21 19 17 15 15 16 16 16 15 14 13 11 10 9 7 8 10 12 12 12 14 16 17 18 20 20 20 18 16 17 17 17 16 15 15 17 18 18 19 20 20 19 18 16 15 15 15 15 16 16 15 15 15 15 14 15 15 15 16 16 16 15 14 14 13 12 12 14 14 13 13 12 10 10 10 9 8 9 9 9 9 10 10 10
13 13 15 19 20 17 15 16 16 16 16 15 15 13 12 11 10 9 8 9 10 11 11 13 14 15 16 18 19 20 20 18 16 16 17 16 16 14 13 16 18 18 18 20 21 20 18 17 16 15 14 13 14 14 14 14 14 15 15 15 15 15 14 15 15 13 13 15 14 13 13 14 14 13 12 12 11 10 9 8 8 8 9 9 9 9 10 10
13 14 16 19 19 16 15 16 16 17 16 15 15 13 12 11 9 9 10 11 11 11 11 12 13 14 16 17 17 17 17 16 16 16 16 16 15 13 12 13 16 17 17 18 19 19 18 17 17 16 15 15 15 15 16 15 14 14 14 14 14 14 14 15 15 14 14 15 14 13 13 13 13 13 12 12 11 10 9 8 8 8 8 9 9 9 9 10
13 14 16 18 18 16 16 16 16 16 16 16 15 13 12 10 8 10 12 12 11 11 11 12 12 13 15 16 17 16 14 14 15 16 16 15 14 13 12 12 13 15 15 15 16 18 18 17 16 16 16 16 16 15 15 15 14 13 13 13 12 13 14 14 15 15 16 15 14 14 14 14 14 13 12 12 11 10 10 9 8 8 8 9 9 9 9 9
13 14 16 17 17 16 16 16 15 16 16 16 15 13 11 10 9 10 13 13 11 10 11 11 11 12 14 15 16 15 14 14 14 15 15 14 14 13 11 11 11 12 14 14 14 16 17 16 15 14 14 14 14 14 13 13 13 13 13 12 11 12 13 13 13 15 16 14 14 14 14 13 14 14 13 12 12 11 10 9 9 8 8 9 10 10 10 9
13 14 16 16 16 16 17 16 16 16 16 15 13 12 11 10 10 11 12 12 11 10 10 11 9 10 12 14 16 16 15 14 13 14 14 13 13 12 10 10 10 11 12 12 12 15 16 15 14 14 13 12 12 12 12 12 12 11 11 10 10 10 10 11 12 13 14 14 15 15 14 13 13 14 13 12 11 10 10 10 9 9 9 10 10 10 10 10
13 14 15 15 15 17 17 17 18 17 16 14 12 12 12 11 11 11 11 11 10 8 10 11 9 9 10 11 13 14 14 15 14 13 13 12 12 12 11 11 11 10 11 11 12 14 14 14 14 14 13 11 10 11 11 11 11 10 9 10 10 10 9 10 11 11 11 12 13 13 12 12 13 13 13 12 11 10 10 10 10 10 11 10 10 10 10 10
13 14 15 15 16 17 17 17 17 17 15 13 12 12 12 11 11 11 10 10 10 8 8 10 10 9 10 10 12 12 13 14 14 13 13 12 11 12 12 12 12 11 11 12 12 12 13 14 15 14 13 11 10 11 10 10 10 10 9 10 10 10 10 10 11 11 10 11 11 11 12 13 13 13 13 12 11 11 10 10 10 10 10 9 9 9 9 10
13 14 14 16 16 17 17 17 17 16 13 12 13 13 12 11 11 11 10 9 9 8 9 10 10 9 9 10 11 11 11 12 13 13 13 12 12 12 11 12 12 12 11 12 13 12 13 14 15 14 13 11 11 11 11 10 10 9 9 9 10 11 11 11 12 12 12 13 13 12 13 14 14 14 13 12 11 10 10 10 10 10 9 9 9 8 9 9
13 14 16 17 17 16 17 17 15 14 13 13 13 12 11 11 10 10 10 8 7 8 8 9 10 9 9 9 10 11 11 11 12 12 12 11 10 10 10 9 10 11 11 12 12 12 13 14 15 14 12 12 13 12 11 11 11 10 11 11 11 12 12 12 12 12 13 14 14 14 14 15 15 14 13 12 11 11 11 11 11 10 9 9 9 9 9 10
Wind_Direction
267 267 266 265 265 265 264 263 263 263 262 262 262 261 261 260 260 259 259 259 260 260 260 260 261 261 262 262 262 262 263 261 259 257 251 246 242 241 239 239 240 234 230 231 227 225 227 226 224 222 220 220 222 221 222 225 224 224 222 222 223 221 219 216 218 219 219 227 233 244 250 238 242 237 233 244 248 247 256 264 256 256 254 245 259 258 234 238
267 267 266 266 265 265 264 264 263 263 262 262 261 261 261 260 259 259 258 259 259 259 259 259 260 260 261 262 262 262 262 260 259 256 249 246 243 241 239 238 238 232 228 229 227 224 224 226 224 221 220 220 222 221 221 224 223 222 221 221 221 218 217 216 218 221 221 228 236 246 245 239 243 238 236 243 252 252 254 264 256 252 248 245 255 248 238 240
267 267 266 266 265 265 264 264 263 263 262 262 261 261 261 260 259 259 258 258 258 258 258 258 259 259 260 260 261 262 261 259 257 253 250 247 243 241 238 235 234 229 228 229 227 225 223 223 222 220 220 221 222 221 221 224 223 222 220 220 222 219 220 223 223 226 229 233 239 243 242 246 248 243 242 239 246 254 247 247 250 247 242 243 247 241 239 239
267 266 266 266 265 265 264 264 263 263 262 262 261 261 260 260 259 258 258 257 257 257 257 257 257 258 258 258 260 260 258 258 254 249 250 247 242 239 236 233 230 228 228 228 227 225 223 221 221 220 220 222 224 222 222 223 222 222 218 217 222 218 220 227 226 230 236 234 234 241 246 250 247 243 239 230 243 259 248 241 245 240 234 237 238 237 239 241
268 267 266 266 265 265 264 264 263 262 262 261 261 260 260 260 259 258 258 257 256 256 256 256 256 256 257 257 257 255 253 254 251 246 246 245 243 239 234 230 226 226 227 225 225 223 220 220 220 221 220 222 223 222 224 223 220 222 220 218 222 219 220 228 227 231 235 233 235 239 245 248 244 240 231 226 241 254 249 245 246 239 230 231 231 235 242 246
269 267 266 266 266 264 264 264 263 262 262 261 260 259 259 259 258 258 257 256 255 255 254 254 254 254 255 256 253 249 246 247 248 244 242 243 245 241 232 227 223 224 224 222 222 221 220 219 219 220 221 222 222 222 224 224 221 222 224 222 223 223 223 228 231 235 238 239 240 238 244 250 247 243 234 234 245 252 255 248 244 239 231 229 231 237 244 248
269 268 267 266 266 265 264 264 263 262 262 261 260 259 258 258 257 257 256 256 255 254 253 253 253 253 254 253 249 245 243 246 246 243 245 245 245 242 231 225 221 222 222 220 220 220 219 218 218 219 219 223 223 223 224 224 222 221 225 225 226 226 224 229 237 241 242 241 244 245 252 254 249 249 242 242 251 255 256 247 238 234 228 230 235 242 247 250
270 269 268 267 266 265 264 264 263 262 262 261 260 259 258 258 257 256 255 254 254 253 252 251 251 251 251 249 245 245 244 244 246 246 248 246 244 241 230 224 220 220 220 219 219 219 219 217 218 219 220 223 222 222 223 224 224 221 222 225 226 226 226 233 240 242 242 242 246 249 253 253 250 251 249 250 253 253 250 242 235 229 226 231 238 244 249 253
270 270 270 268 266 264 263 264 263 262 261 260 259 259 258 258 257 256 254 253 252 251 251 250 250 249 248 246 243 244 244 244 246 247 245 242 242 238 230 224 219 218 219 220 219 218 219 218 218 219 221 222 220 222 220 221 225 221 220 223 225 228 232 237 239 239 240 241 244 246 250 252 251 250 254 257 253 250 246 239 232 224 225 233 239 243 247 251
271 270 270 269 267 265 263 263 262 261 261 260 259 258 258 257 257 256 254 252 251 250 250 249 248 247 245 244 241 242 244 244 245 245 241 238 236 232 228 223 218 217 219 220 219 218 220 219 218 218 220 221 220 223 220 219 222 220 220 224 226 229 235 235 236 239 240 240 238 238 245 250 251 249 252 254 247 243 239 233 229 224 226 232 236 240 245 250
271 270 270 269 267 265 263 262 262 261 260 259 258 257 257 256 256 255 254 251 250 249 248 247 247 245 243 242 239 239 243 243 242 241 237 234 231 227 225 222 219 218 219 221 221 219 219 218 216 217 223 223 220 222 222 220 221 220 219 224 229 229 234 232 234 239 236 238 237 233 242 247 246 246 247 246 240 236 229 225 226 224 228 231 232 236 243 249
271 271 270 269 267 265 263 262 261 260 259 258 257 256 256 255 255 254 253 251 249 248 247 246 245 243 242 241 239 239 241 240 238 238 235 231 228 226 225 221 220 220 219 220 222 220 218 217 215 217 223 221 219 221 223 220 220 222 219 223 230 230 232 230 232 236 230 235 235 227 239 248 244 246 248 244 237 235 227 221 223 223 227 229 230 235 241 248
272 271 269 268 267 265 263 261 260 259 258 257 257 256 255 255 254 253 252 250 249 248 247 245 243 242 241 241 240 240 240 239 238 239 235 231 229 226 225 224 223 222 221 221 221 219 218 217 215 218 221 219 220 221 221 221 221 224 222 221 227 230 232 231 232 232 227 233 230 221 237 247 245 248 249 240 232 230 225 221 222 223 226 227 230 234 239 247
272 270 269 267 266 264 262 261 260 259 258 257 256 256 255 254 253 251 250 249 247 246 245 243 241 240 240 241 242 241 240 239 239 238 234 230 228 225 225 224 224 224 224 223 222 220 217 217 216 219 223 220 222 223 223 223 222 224 224 223 225 225 230 235 235 228 224 231 225 220 236 242 243 246 242 233 227 222 220 223 223 224 226 226 230 233 238 247
271 270 268 266 265 263 262 260 259 259 257 256 256 255 254 253 252 250 249 248 246 244 242 241 240 239 241 243 242 241 238 236 236 234 230 227 224 224 224 223 224 224 224 223 222 221 217 216 217 219 223 223 221 222 222 222 223 222 221 226 227 223 229 237 234 226 224 231 227 221 233 243 245 245 241 230 225 222 219 222 222 223 224 225 230 233 237 247
271 269 267 265 263 262 261 259 258 258 257 255 255 255 254 253 251 249 248 245 243 241 239 239 237 237 240 241 238 237 235 232 232 231 227 225 221 222 221 220 223 222 222 222 220 219 216 215 217 219 221 221 217 216 218 220 224 224 219 222 225 222 227 231 229 229 227 228 231 227 229 238 240 243 246 231 226 227 225 225 224 223 223 225 231 235 239 246
270 268 266 264 262 261 260 259 257 257 256 255 255 255 254 252 250 247 244 241 239 237 236 236 235 236 238 238 237 236 232 230 230 227 224 222 219 219 218 219 221 219 219 220 217 216 215 215 217 219 220 219 217 215 216 220 221 224 221 219 222 221 222 225 226 230 227 223 230 232 229 231 233 240 249 242 237 237 234 234 233 229 227 229 232 236 241 243
269 267 265 263 262 260 259 257 257 256 255 254 255 255 254 250 246 242 238 235 234 234 235 235 232 234 237 236 235 232 230 229 227 224 221 219 218 217 217 219 218 215 215 218 217 215 215 216 217 218 218 217 217 215 216 219 217 219 220 218 222 222 221 223 223 226 228 225 227 230 229 229 235 245 251 254 248 241 241 245 244 237 232 233 234 237 240 241
267 265 263 262 260 259 258 256 255 254 254 253 254 254 250 245 241 238 235 232 231 231 234 232 228 230 234 232 231 230 231 229 225 221 217 216 216 216 217 217 216 214 215 218 217 215 214 216 217 216 217 217 216 215 216 217 214 214 217 214 216 219 220 223 224 227 228 225 226 223 221 223 231 241 249 255 250 245 253 257 252 241 234 234 236 238 242 242
266 263 261 260 259 258 257 255 254 253 253 251 252 250 244 240 239 237 235 232 232 232 234 231 227 229 232 229 228 229 230 226 222 219 215 214 213 214 216 216 216 216 217 217 216 214 212 215 218 216 217 217 216 215 214 214 211 212 214 212 213 215 219 222 224 230 227 223 226 216 209 219 228 235 243 248 252 266 275 270 260 245 235 236 241 245 247 245
264 262 260 259 258 257 255 254 253 252 251 249 249 246 241 239 237 236 236 235 235 235 235 233 229 231 232 230 229 230 228 225 222 218 214 212 209 211 216 216 215 217 218 216 213 213 213 215 219 217 216 216 215 214 211 211 211 211 211 210 212 213 218 223 224 232 226 217 221 208 200 219 230 233 241 247 253 269 277 276 271 255 239 238 245 248 248 249
263 261 259 257 257 257 255 253 252 250 248 246 244 242 239 238 236 237 238 237 237 234 234 233 231 233 233 231 232 230 227 224 223 220 213 210 208 211 215 214 215 217 216 213 211 212 214 217 219 217 215 213 213 213 210 210 211 212 211 209 212 215 219 225 227 230 221 209 211 203 199 219 233 233 236 245 248 255 271 275 276 272 258 250 249 247 247 253
262 260 258 256 256 255 254 252 250 248 245 242 239 236 236 236 237 239 237 235 237 233 230 229 229 230 229 229 229 225 222 220 221 221 213 208 210 212 212 213 214 214 214 211 209 210 215 219 218 213 212 210 211 212 209 211 212 212 211 209 213 216 215 221 226 227 218 207 206 200 200 217 231 233 232 243 250 256 276 283 287 283 269 259 254 252 254 257
261 259 257 255 254 253 252 251 248 244 240 238 236 233 234 237 238 238 234 232 234 232 228 226 224 225 224 224 222 217 218 218 217 219 213 208 209 211 212 213 212 211 213 210 208 210 215 219 215 210 211 209 209 211 209 210 213 215 213 208 211 213 212 216 222 224 217 209 206 200 202 217 228 230 233 244 251 260 284 298 304 294 276 265 261 262 262 261
259 258 256 253 252 251 250 248 243 238 237 235 233 230 232 235 236 233 231 232 233 230 226 223 222 223 220 218 216 214 216 218 216 216 214 208 207 210 212 212 211 211 211 207 207 212 216 218 212 209 212 210 208 212 211 210 211 216 215 210 208 208 211 217 219 218 211 208 208 203 205 221 227 224 228 240 246 255 279 299 306 299 292 284 279 276 271 266
259 257 253 251 249 249 246 241 235 235 235 230 227 227 229 233 233 228 225 231 233 227 222 219 218 218 214 213 212 210 216 219 215 214 213 209 208 209 210 212 212 211 208 206 210 215 216 214 210 209 211 210 210 213 214 210 209 216 216 210 207 206 209 216 215 211 210 208 208 207 207 217 225 225 229 238 242 249 266 285 297 299 299 294 289 284 277 273
258 255 252 249 247 244 240 235 234 235 230 224 223 225 229 231 227 221 221 231 233 223 216 216 214 212 211 209 205 205 214 215 210 211 210 207 207 208 208 210 209 209 208 206 212 216 213 210 209 209 209 210 211 213 214 209 207 215 215 206 204 206 208 210 208 209 214 213 212 214 210 210 221 227 232 240 242 246 255 270 285 290 298 304 303 295 286 281
257 254 250 246 243 239 236 235 235 231 224 222 224 226 228 225 217 215 217 223 225 216 211 212 209 207 207 204 200 203 209 206 204 209 207 203 205 205 207 208 205 206 207 206 211 216 212 209 208 207 208 210 212 212 209 206 209 214 210 203 203 205 206 205 205 210 215 214 216 221 214 209 224 231 234 240 238 239 250 261 272 278 290 303 307 304 299 294
256 254 249 244 241 236 233 232 228 224 221 221 223 224 222 214 208 210 213 214 216 211 207 205 204 204 202 199 200 203 205 203 203 204 200 200 204 205 205 205 201 202 206 206 209 212 211 210 207 204 207 210 211 211 205 204 210 209 202 200 203 205 205 204 206 210 213 213 217 222 217 212 227 235 234 235 233 237 247 253 259 265 279 292 298 301 301 298
253 252 248 240 235 230 228 225 222 218 216 216 217 216 207 200 200 203 206 207 207 204 200 199 201 200 196 196 200 203 203 204 200 195 195 199 202 202 201 201 199 201 205 206 205 208 210 207 204 203 206 206 206 206 203 202 204 199 196 199 202 204 205 206 210 209 210 218 221 223 218 213 224 234 234 232 232 237 242 247 252 260 273 283 290 295 297 296
250 247 241 231 224 222 219 216 213 208 206 207 210 204 193 192 195 195 197 200 200 198 195 195 198 195 192 194 197 199 200 200 195 192 195 198 197 197 197 198 199 200 204 205 205 209 210 204 203 205 203 199 198 201 202 202 199 194 196 197 196 202 204 206 213 210 211 220 224 225 221 216 222 230 231 227 226 233 240 245 252 261 273 282 288 293 295 295
244 238 230 221 217 215 210 206 203 199 198 201 200 191 185 188 195 194 192 192 194 195 192 192 195 194 193 194 194 195 196 197 196 193 194 196 197 197 197 199 199 198 203 204 203 208 209 206 206 205 202 197 196 199 200 201 199 195 196 194 192 199 203 207 215 215 216 220 222 225 225 222 225 226 225 225 227 233 239 245 254 264 274 284 290 294 296 297
233 226 221 217 215 213 209 205 201 196 195 196 191 184 181 186 194 194 192 189 187 190 189 190 194 191 191 192 192 192 192 194 196 194 195 195 196 198 200 201 199 197 201 200 199 202 205 208 206 201 204 200 195 198 199 200 199 196 197 196 195 199 202 208 216 218 221 222 222 227 227 225 226 225 225 229 232 235 237 245 256 267 275 283 289 293 298 301
226 221 218 214 212 212 207 202 198 194 192 191 186 181 181 186 190 191 194 195 189 187 185 188 191 187 189 192 190 188 188 192 193 191 193 194 195 197 199 201 200 196 196 195 197 197 196 203 203 198 202 201 196 199 198 196 198 199 200 199 200 203 204 211 216 217 220 222 225 230 228 226 226 228 228 229 232 234 237 247 256 267 276 280 286 290 296 300
222 219 216 211 208 207 201 196 193 190 188 187 182 180 183 187 188 186 191 195 191 189 191 195 190 185 187 190 188 187 187 189 189 189 193 194 195 196 196 198 199 195 192 192 197 197 193 201 204 199 199 196 197 201 196 192 196 201 200 198 204 208 205 210 216 216 215 218 228 231 227 227 227 230 231 230 233 237 243 256 263 270 276 280 286 291 296 299
215 211 206 203 201 198 193 189 187 184 184 182 180 182 186 185 183 180 184 191 190 188 194 197 188 183 185 186 185 187 186 184 186 188 191 192 193 195 196 197 196 193 192 192 194 194 193 200 203 198 197 196 197 200 196 194 195 198 200 202 208 209 204 206 215 219 215 215 227 229 224 225 228 232 232 229 234 238 244 258 268 273 278 284 290 294 298 300
200 195 194 197 196 190 184 181 180 179 180 179 179 184 186 183 180 177 183 193 190 185 187 190 185 183 184 184 184 186 186 184 184 186 188 190 192 193 194 196 194 192 192 190 193 194 191 197 200 195 196 200 197 192 193 197 195 195 201 205 207 209 209 209 213 221 220 218 227 228 223 223 227 232 231 226 230 234 238 251 264 276 284 290 294 296 300 302
186 187 193 195 189 181 176 174 174 175 176 177 182 185 184 183 179 176 183 188 188 189 191 190 187 183 182 184 185 185 185 185 185 184 185 188 192 192 191 193 191 192 192 187 190 193 188 193 201 198 195 199 197 188 191 200 200 198 201 204 206 209 214 213 213 217 218 221 229 230 227 228 229 232 230 227 230 232 237 248 259 273 284 289 293 297 300 303
182 185 186 181 174 172 170 169 170 172 174 178 183 184 181 182 181 182 188 184 183 190 190 188 186 183 182 183 183 182 184 185 184 183 184 186 189 190 191 192 191 192 192 186 187 191 187 189 198 200 198 198 198 195 195 198 200 201 202 207 212 213 212 213 215 217 216 221 228 228 230 233 232 233 232 229 230 231 237 247 257 269 279 284 288 292 296 300
177 177 170 166 167 167 166 166 169 173 176 179 180 179 178 182 184 190 192 185 176 179 181 181 181 180 180 181 181 180 181 182 182 183 185 185 185 188 191 191 189 191 191 189 189 189 188 190 195 201 201 197 198 200 200 200 201 203 205 209 214 216 214 214 218 221 217 219 225 227 231 234 233 233 232 227 229 232 237 244 253 264 273 280 285 289 292 296
168 166 162 162 163 163 163 166 172 174 175 176 175 174 177 181 185 190 192 188 178 178 182 184 180 178 178 177 177 178 178 180 182 182 183 185 184 186 190 189 188 188 188 190 193 191 191 193 194 199 198 195 199 203 204 205 205 205 209 212 213 214 212 212 220 225 221 219 221 224 230 232 231 232 229 225 229 236 239 242 250 263 271 277 283 288 291 294
162 161 160 161 162 162 163 167 173 171 170 170 171 174 175 173 176 184 189 186 177 174 179 184 180 178 178 176 175 175 176 177 180 181 182 184 184 186 190 190 188 187 187 190 194 193 192 192 191 193 195 196 202 204 202 204 204 205 212 215 214 215 213 211 218 222 221 222 222 223 230 230 228 230 230 230 232 238 242 245 252 263 270 274 280 287 291 294
158 158 158 160 162 163 164 167 170 168 167 169 171 172 171 167 168 173 174 169 165 163 167 173 174 174 177 177 174 174 175 172 175 181 181 181 183 187 191 190 187 187 189 191 194 193 193 193 189 190 197 201 204 206 205 205 206 209 215 217 215 218 217 215 220 220 216 219 222 225 233 231 224 225 230 233 233 238 246 252 256 262 269 275 281 288 292 295
156 156 156 160 164 164 164 165 165 165 166 168 167 166 167 166 167 169 166 160 156 153 155 163 167 169 172 173 171 172 176 172 171 176 178 178 181 183 185 186 186 189 193 194 194 194 196 197 192 189 196 202 203 207 208 209 212 213 216 220 221 220 218 218 222 222 219 220 220 223 231 230 222 221 227 230 233 238 246 251 255 263 271 275 279 288 295 297
154 153 154 161 165 163 162 162 161 161 163 163 161 159 160 160 162 167 165 159 155 150 148 156 165 164 164 165 165 168 173 175 173 173 174 175 178 179 179 181 185 189 191 191 190 192 196 199 197 194 197 201 205 208 208 208 212 214 215 222 225 224 223 222 221 221 223 223 223 223 226 223 218 218 223 229 235 240 243 246 253 263 270 272 276 286 294 297
152 152 153 158 163 163 162 161 159 158 159 158 157 156 156 155 155 160 160 155 154 151 145 149 158 161 160 161 163 165 170 174 174 172 174 175 175 177 177 174 176 179 179 181 187 192 196 199 201 200 199 203 206 210 212 209 209 213 218 224 226 226 227 223 220 222 222 221 227 230 223 216 215 217 222 230 237 240 242 247 255 262 268 273 277 283 290 296
149 153 155 155 159 162 162 162 160 157 156 156 156 157 158 158 157 156 154 152 152 150 146 146 150 157 163 164 164 166 168 167 167 170 174 177 177 178 176 171 173 175 176 183 194 195 195 199 204 203 201 205 206 206 209 209 209 211 215 220 225 226 226 222 222 225 220 219 229 230 220 216 218 218 221 228 234 239 244 251 256 260 266 274 279 284 289 295
147 154 159 158 158 160 160 161 161 158 156 154 155 157 156 159 162 159 157 156 152 148 149 148 147 151 160 168 167 165 165 163 164 170 174 176 177 178 177 176 179 180 179 187 196 194 193 199 203 200 197 202 206 204 201 201 205 208 210 215 221 224 224 222 227 231 226 224 227 221 215 219 222 221 223 228 234 240 246 253 257 260 267 275 283 287 290 293
147 153 158 160 159 158 158 159 158 157 158 157 157 160 160 163 167 164 161 158 153 151 150 151 154 151 153 164 167 166 169 169 168 174 176 175 176 177 178 181 184 183 182 187 194 195 194 196 199 197 192 195 205 206 201 199 203 207 210 215 219 219 219 221 228 232 228 225 223 216 214 222 226 225 226 228 234 239 246 254 260 263 270 278 284 285 286 288
147 152 157 157 156 156 157 158 156 157 160 158 158 164 164 164 166 163 160 157 159 163 156 151 154 152 149 153 157 162 172 171 168 173 178 178 180 183 185 188 190 190 191 194 197 201 198 195 199 201 195 198 209 206 201 201 202 206 214 220 222 222 223 226 228 229 228 224 222 219 221 227 229 227 226 228 234 239 245 254 260 265 271 276 279 282 284 284
150 155 157 155 156 157 159 159 157 158 160 158 160 165 165 164 167 162 155 153 155 159 161 159 155 152 151 150 150 158 168 165 162 168 174 173 177 184 188 191 192 194 198 199 201 206 203 197 201 204 199 204 212 207 203 205 204 209 220 225 230 231 230 232 234 235 233 225 219 223 230 232 230 226 226 230 235 241 248 253 258 266 271 271 273 279 281 281
150 154 154 154 156 157 158 157 156 159 162 161 162 165 164 167 174 168 158 153 149 150 162 168 164 161 161 156 157 167 170 165 162 166 167 164 164 172 178 180 183 188 194 198 203 209 208 201 202 205 202 205 213 214 216 218 218 223 229 231 232 233 231 233 239 242 241 234 230 233 234 231 228 227 230 235 239 243 249 253 257 264 267 267 269 271 272 274